User: anonymous   Login
Location: Caltech
(34.1382°N, 118.1253°W)
Time: 04:17:11
(UTC-08:00)
Language:

Oscar 10/S400 - Orbit

View from above orbital plane
View from above orbital plane
View from above satellite
View from above satellite

Ground track
Ground track

The orbit data is extracted from the following two-line orbital elements,

1 14129U 83058B   15022.58722594  .00000257  00000-0  00000+0 0  2562
2 14129 025.8642 178.5449 6064721 065.9817 349.0727 02.05868886209763
Epoch (UTC): 22 January 2015 14:05:36
Eccentricity: 0.6064721
inclination: 25.8642°
perigee height: 3894 km
apogee height: 35554 km
right ascension of ascending node: 178.5449°
argument of perigee: 65.9817°
revolutions per day: 2.05868886
mean anomaly at epoch: 349.0727°
orbit number at epoch: 20976

The dashed part of the orbit path shows where the satellite is in the earth's shadow,  

DLR